sat.trackr.live / text

‹ back to catalog

GONETS-M 9

NORAD 40062 · 2014-036B

PAYLOAD ACTIVE UNKNOWN

§ Identity

Operator
Country
CIS
Launch date
2014-07-03
Launch site
PLMSC
Launch vehicle
Mass (kg)
RCS (m²)
1.65

External: N2YO · Heavens-Above · Gunter

§ Orbital elements

Epoch: 2026-09-20T03:36:13.658976Z

Period
115.85 min
Inclination
82.5059°
Eccentricity
0.0022205
Mean motion
12.42953059 rev/d
Perigee alt
1,476.6 km
Apogee alt
1,511.6 km
Semi-major
7,872.2 km
B*
-3.7086e-4
RAAN
248.6609°
Arg perigee
311.1297°
Mean anomaly
48.7866°
Rev number
55,425

§ Raw data

GONETS-M 91 40062U 14036B   26263.15015809 -.00000042  00000+0 -37086-3 0  99982 40062  82.5059 248.6609 0022205 311.1297  48.7866 12.42953059554253

JSON: /api/v1/satellites/40062 · /tle

For live sub-satellite position, see the globe view (requires WebGL).

§ Visibility from observer

Set your observer location to see the next 7 days of passes ≥ 10°. The values pass through the URL so the page stays shareable.

No JS? Fill the form by hand. The geolocation button needs JavaScript.